Theta_e
294 287 285 286 287 287 286 284 284 288 288 284 285 286 289 291 292 291 291 291 290 291 292 295 296 296 295 297 298 297 297 297 299 299 299 301 301 304 305 306 307 308 309 312
288 284 288 290 289 287 285 282 283 288 288 285 285 284 289 291 291 290 289 288 290 291 292 294 295 295 296 295 294 294 295 296 297 298 300 300 299 300 301 302 303 305 309 311
285 287 290 288 286 286 284 282 281 281 285 286 283 283 289 289 289 290 290 290 292 291 291 293 295 293 293 292 293 294 294 294 295 296 297 298 298 298 297 298 300 301 303 305
286 288 287 284 285 286 280 285 285 283 280 277 282 273 284 289 288 289 290 289 289 291 293 293 293 292 293 293 294 294 295 295 296 295 295 293 293 293 296 297 299 299 302 302
285 284 283 284 286 287 283 286 284 282 280 273 278 272 283 286 285 288 289 289 290 291 292 292 292 293 292 294 293 295 295 295 295 295 294 293 293 295 297 297 297 298 299 300
285 288 287 286 287 286 287 283 282 280 279 270 276 276 281 286 287 288 290 290 291 292 292 293 292 293 293 294 294 293 293 293 294 294 295 294 294 295 295 295 295 296 297 299
284 284 286 288 283 286 284 279 278 277 273 275 278 273 281 288 290 287 288 289 291 291 291 291 290 292 293 292 292 292 292 292 294 295 295 295 295 295 294 294 294 294 295 295
281 280 284 287 284 281 281 279 277 271 274 274 277 273 283 287 287 288 290 289 290 290 291 290 291 292 292 291 291 291 291 293 295 295 295 295 295 295 294 294 294 293 294 294
281 279 285 286 286 284 280 277 281 274 267 270 276 282 288 288 287 287 287 287 287 289 290 290 291 292 291 290 290 290 293 294 295 294 294 294 293 292 291 292 292 292 292 293
282 278 282 283 286 285 282 283 277 277 268 268 276 278 280 284 285 286 287 287 288 288 290 290 291 291 290 289 290 293 295 293 293 293 293 292 291 291 291 291 290 291 291 292
283 280 279 282 280 280 278 279 279 279 277 272 271 277 284 283 283 285 287 289 288 289 289 290 290 290 289 289 293 293 292 292 292 292 291 290 289 290 290 290 290 290 290 290
284 282 275 279 281 283 282 280 281 277 275 276 275 274 286 286 286 287 288 289 289 290 290 290 289 288 288 291 291 291 291 291 291 290 289 289 289 289 288 289 289 290 290 290
283 278 272 275 277 280 277 280 281 279 278 273 274 275 286 287 289 292 290 290 291 291 289 288 287 286 289 290 289 290 291 290 290 289 288 287 287 288 288 289 289 290 290 290
288 281 277 273 278 281 276 278 280 278 271 275 276 279 285 287 288 289 289 288 288 288 288 287 286 286 289 289 289 289 290 290 288 287 287 286 287 288 288 289 289 289 289 289
285 279 278 279 280 281 281 281 279 277 278 273 280 280 284 287 287 289 288 287 287 285 286 286 285 285 288 287 289 290 290 289 288 287 286 286 286 287 288 288 288 289 289 289
282 275 272 269 277 279 279 280 280 280 281 280 280 280 287 289 287 286 283 284 283 282 283 284 285 286 285 288 288 289 289 288 288 286 286 286 286 287 287 287 287 288 288 288
281 276 275 269 272 270 270 275 279 280 281 281 277 282 286 284 283 282 279 283 282 282 282 282 282 286 285 287 288 288 288 288 287 286 285 286 285 285 286 286 287 286 287 288
280 276 277 269 270 269 278 281 282 280 282 284 284 285 286 284 282 283 284 282 282 281 281 282 282 286 286 287 287 288 288 286 285 285 285 285 285 285 285 286 286 286 286 286
284 281 275 272 268 275 280 281 280 277 279 283 283 285 284 281 282 283 283 283 283 281 284 282 281 285 286 285 285 286 286 286 285 284 283 284 285 285 285 285 285 286 285 285
284 284 278 270 268 264 276 277 280 279 274 283 284 283 283 281 280 283 286 284 283 284 283 282 281 285 285 282 281 285 285 285 284 283 284 285 285 285 284 285 285 285 286 285
275 277 275 275 274 273 281 279 279 271 276 281 283 283 282 281 284 286 287 287 285 282 283 280 280 284 284 281 281 283 285 285 285 285 285 285 285 285 285 285 285 285 285 285
271 272 272 274 273 270 282 277 277 281 282 282 282 284 282 284 285 286 286 286 285 282 282 281 281 284 284 283 281 283 284 285 285 285 285 285 285 285 285 285 285 286 285 285
271 276 273 276 275 282 282 281 283 283 282 281 282 283 284 284 283 284 285 285 285 283 282 282 283 284 284 282 282 280 279 280 284 284 285 285 285 285 285 285 284 284 285 284
279 281 279 278 281 282 283 284 284 285 284 285 284 283 284 284 285 284 284 283 283 283 282 281 284 283 283 283 284 279 277 280 281 282 285 285 285 285 285 285 284 284 283 283
279 279 279 278 282 282 284 285 286 286 285 284 284 284 285 284 284 284 283 283 283 283 282 282 283 283 283 283 284 279 278 279 279 279 284 284 285 285 284 284 284 284 285 285
280 278 276 275 281 281 282 283 284 284 284 285 284 284 285 285 284 283 282 283 282 282 281 280 282 283 283 283 282 279 275 275 276 280 283 283 283 284 283 283 283 286 286 287
Wind_Speed
2 3 6 4 5 4 2 4 7 6 6 4 6 15 24 9 11 10 8 6 1 4 1 7 6 6 3 3 3 1 3 4 2 2 2 3 4 4 4 5 8 8 6 7
2 5 6 5 4 1 1 4 4 5 4 3 7 20 25 18 8 2 5 3 7 5 7 7 7 6 6 5 5 7 6 5 4 3 3 3 3 4 4 4 6 6 6 7
6 4 3 1 3 2 4 4 2 2 8 5 9 9 7 1 3 4 3 2 8 8 8 8 7 6 6 6 5 4 4 6 5 6 4 4 4 3 4 5 7 9 8 8
4 3 0 1 2 2 2 6 5 4 6 3 4 8 10 3 4 6 7 6 6 7 6 8 7 5 6 5 3 3 6 6 5 6 5 5 4 8 8 8 7 6 8 13
1 4 3 3 1 2 2 3 3 2 2 4 1 3 12 1 3 7 8 9 8 8 8 6 6 3 3 3 3 5 5 5 6 5 6 5 7 7 7 8 10 10 8 8
2 2 3 3 4 4 4 2 4 2 3 2 2 3 9 1 2 4 5 6 7 8 8 7 5 2 4 3 4 5 6 6 6 6 7 7 9 11 11 11 11 10 10 9
2 2 3 2 2 1 2 2 1 3 2 5 5 3 12 13 9 2 4 6 6 6 7 5 3 3 4 6 6 6 7 7 7 7 7 7 9 11 14 13 11 13 11 10
4 3 2 3 3 3 5 1 4 4 3 3 4 6 9 3 3 6 6 6 6 6 3 5 5 4 4 6 7 7 7 8 7 7 7 7 12 10 11 13 12 12 12 12
2 2 3 5 3 3 1 1 3 4 2 3 5 6 9 10 7 7 4 2 3 5 1 3 4 3 4 5 7 8 8 8 7 8 9 12 12 13 12 15 14 12 15 12
1 1 2 2 2 3 3 0 1 3 3 5 4 3 4 9 7 6 8 8 7 3 5 4 4 4 4 4 6 7 6 8 11 12 10 10 12 13 14 13 15 16 16 16
3 2 1 2 5 5 2 2 2 0 3 4 3 6 3 4 1 4 5 5 6 5 4 5 6 5 4 5 5 6 9 12 11 11 12 12 12 13 13 13 14 15 16 15
1 1 2 2 4 5 3 2 4 3 2 2 2 9 1 7 4 1 7 8 6 5 6 6 6 5 6 6 6 9 11 12 10 11 12 13 14 13 13 13 15 15 16 16
3 2 1 4 3 2 3 4 4 4 3 6 3 7 5 7 11 16 13 10 8 8 6 6 6 5 6 6 9 9 10 11 10 11 12 14 14 13 13 13 14 14 15 16
4 1 5 6 4 4 3 4 7 6 3 4 11 16 17 18 14 10 15 10 8 7 7 6 6 5 5 7 8 10 11 10 10 11 12 14 13 13 13 14 14 15 15 15
3 5 4 4 5 6 6 9 9 11 13 7 17 17 21 17 18 19 8 7 8 8 8 7 7 6 6 8 10 11 10 10 10 11 13 15 15 12 13 13 13 14 13 12
3 2 3 5 8 10 14 16 10 16 17 18 22 25 23 19 7 14 8 8 8 6 7 7 7 7 7 8 10 11 10 11 12 11 13 13 13 13 12 12 13 13 12 12
6 4 3 6 1 2 10 12 18 12 10 12 17 23 14 7 8 7 7 6 7 8 7 7 7 8 7 9 9 10 10 11 11 11 13 11 12 12 12 12 12 12 11 11
7 4 4 3 1 9 9 3 6 15 17 13 15 14 13 6 6 9 7 4 8 7 8 8 6 6 9 8 9 9 9 9 10 10 11 10 11 11 12 12 11 11 10 11
10 7 4 5 7 10 19 11 7 10 15 14 13 15 5 2 6 6 3 6 8 7 8 7 6 5 8 9 7 8 9 8 8 10 11 10 10 11 11 11 11 10 8 10
15 15 7 3 5 10 8 2 4 3 10 10 12 7 6 3 2 5 3 5 8 9 7 8 6 5 8 6 5 7 8 8 8 10 10 9 9 9 10 10 9 8 7 8
5 6 17 16 13 9 10 7 5 6 7 1 7 6 6 4 5 7 8 8 4 6 8 4 4 6 8 4 3 7 8 8 9 9 8 8 9 9 9 8 6 8 7 7
8 11 8 7 9 20 8 4 10 6 2 3 4 5 4 6 8 8 8 8 8 7 7 5 5 6 6 4 1 6 7 7 8 8 7 8 9 7 6 8 7 7 7 6
6 10 7 12 9 4 5 4 9 2 2 2 3 6 6 7 6 7 6 8 8 8 7 5 5 6 5 3 2 6 5 5 6 6 7 8 8 8 7 7 8 6 6 5
9 8 11 8 14 13 6 3 4 7 8 8 8 8 7 8 9 8 7 8 7 7 7 4 5 7 6 5 4 6 4 5 4 4 6 6 7 8 9 6 7 7 6 5
6 1 7 14 19 12 13 11 13 15 10 8 8 9 11 8 9 8 7 9 8 8 6 5 6 7 8 6 6 5 3 2 3 3 4 5 4 5 6 10 9 8 11 10
10 11 10 14 11 15 15 7 7 11 11 11 10 8 9 9 10 8 9 8 8 9 6 6 7 8 9 7 7 5 5 3 2 1 2 2 3 3 2 4 8 21 22 21
Wind_Direction
174 229 218 63 64 59 345 289 276 318 66 336 268 288 288 280 274 272 265 262 150 86 277 108 107 122 165 173 187 122 28 327 316 257 256 277 243 246 240 237 240 238 238 236
188 225 59 70 68 45 242 289 296 294 30 335 311 298 284 287 258 168 82 103 121 156 130 132 143 162 193 141 59 27 12 336 309 296 263 228 248 266 257 279 291 290 269 248
265 82 90 43 134 292 246 226 343 236 330 258 319 278 301 48 96 116 150 173 148 162 162 155 162 177 145 82 49 3 329 304 289 290 299 298 290 287 271 264 263 262 256 258
273 65 169 137 268 146 259 29 47 333 17 287 28 280 300 292 175 186 185 194 170 154 138 152 161 182 157 150 172 257 278 287 302 321 305 286 268 277 279 285 283 279 260 253
166 150 154 213 94 152 125 48 49 9 70 30 292 71 272 200 237 200 196 183 183 172 155 153 161 188 17 18 279 272 297 303 296 301 298 293 293 288 294 295 293 289 284 280
12 1 342 38 76 30 104 237 166 144 111 8 230 112 289 313 155 91 161 173 180 163 151 125 92 30 277 295 321 308 303 295 313 317 308 302 297 298 295 290 288 286 284 278
138 160 55 334 155 149 231 251 310 306 349 224 130 68 251 306 335 124 162 156 180 143 128 148 181 276 320 316 311 317 318 313 313 314 306 302 305 308 301 298 293 290 286 278
201 297 152 137 358 358 208 25 147 244 314 300 25 239 256 194 87 35 89 114 100 103 150 181 206 216 297 320 322 318 321 312 299 297 313 314 300 294 291 290 288 285 280 278
339 130 101 35 8 23 73 333 342 92 64 58 232 264 289 34 43 22 93 96 176 121 34 270 251 287 345 334 323 321 309 298 322 317 314 309 302 296 290 288 286 283 280 276
5 185 347 148 238 59 69 335 22 359 332 279 275 255 236 20 6 46 45 34 60 87 347 317 294 339 340 328 311 299 334 327 316 315 311 303 300 293 287 283 279 278 278 273
340 95 190 169 194 165 132 198 193 71 171 217 314 268 78 166 140 40 343 324 288 320 311 324 329 319 328 321 327 352 328 314 312 315 307 298 295 290 286 280 279 276 275 271
96 120 212 209 60 26 34 353 169 152 247 251 180 267 35 161 166 300 291 277 292 315 309 329 316 336 338 336 357 327 315 318 311 311 308 298 294 289 287 282 277 274 272 269
171 221 323 327 13 67 238 195 235 96 86 202 194 256 238 262 333 328 323 341 328 305 322 322 331 336 339 348 319 310 315 313 311 309 306 301 292 292 294 289 286 286 282 275
114 221 193 209 138 117 212 225 197 171 160 232 228 277 277 287 295 324 317 307 315 326 318 310 314 327 327 311 308 310 307 313 312 307 302 297 300 304 299 294 294 286 279 274
145 225 207 265 287 298 234 241 212 209 223 230 266 264 277 291 303 301 309 318 311 304 315 312 304 304 304 308 316 309 307 315 305 306 308 309 311 307 299 300 299 291 285 283
146 230 74 286 228 235 256 241 229 237 244 248 257 268 269 283 311 318 321 314 303 305 291 291 284 285 288 307 306 310 310 315 311 315 306 312 315 313 312 309 305 299 298 299
160 158 132 256 44 20 288 223 210 220 228 220 241 249 273 291 324 311 299 302 287 286 276 278 263 277 280 305 305 315 310 309 310 309 310 317 318 317 316 310 309 305 313 309
161 161 177 236 121 238 246 190 175 210 233 231 247 262 262 272 287 290 264 268 282 274 272 272 256 271 286 298 309 311 304 297 307 311 304 317 316 319 321 312 319 319 322 317
202 182 228 221 199 283 292 274 205 185 253 228 239 249 261 259 328 290 203 240 257 254 263 253 242 255 275 289 291 313 304 301 314 308 322 320 317 324 320 318 327 320 325 324
211 209 210 182 200 214 250 118 75 90 275 224 207 194 200 139 223 269 290 254 263 262 255 264 250 260 266 269 293 306 301 315 325 324 311 320 318 323 322 317 331 317 327 331
180 210 217 226 231 270 249 164 109 170 253 46 142 146 160 181 217 266 300 296 257 253 277 251 221 244 262 270 298 306 311 331 318 311 311 330 322 328 312 328 330 330 340 349
161 174 208 219 229 249 152 71 185 191 56 145 143 146 188 243 268 268 272 282 299 291 299 270 256 254 257 252 279 309 314 326 308 313 329 342 336 338 333 345 346 340 346 358
220 191 186 187 207 245 180 188 222 340 124 191 229 240 243 272 268 290 294 299 286 280 278 259 240 264 243 228 234 280 280 317 321 328 344 359 352 355 358 4 6 352 357 14
240 215 228 252 256 257 262 270 195 191 214 243 250 251 260 263 269 267 280 280 281 282 281 256 260 261 255 210 220 251 276 317 346 338 349 359 1 8 19 18 29 17 15 25
228 14 246 254 259 285 274 276 283 280 268 255 244 238 249 249 263 252 263 271 267 270 272 256 254 261 251 208 209 249 260 353 336 353 349 358 347 352 32 45 39 35 40 42
246 250 249 257 276 284 274 247 255 258 257 241 237 258 245 220 239 248 255 257 255 266 263 260 247 244 251 201 210 214 241 121 300 73 340 356 341 337 355 48 62 51 56 54